Weather History for KLGC - April, 2013

Change the Weather History Date:

Saturday, April 6, 2013

  Actual Average Record
Temperature  
Mean Temperature 53 °F -  
Max Temperature 73 °F 72 °F 87 °F (1965)
Min Temperature 33 °F 43 °F 29 °F (1966)
Degree Days  
Heating Degree Days 12    
Growing Degree Days 3 (Base 50)    
Moisture  
Dew Point 40 °F    
Average Humidity 64    
Maximum Humidity 99    
Minimum Humidity 30    
Precipitation  
Precipitation 0.00 in - - ()
Sea Level Pressure  
Sea Level Pressure 30.13 in    
Wind  
Wind Speed 2 mph (SSE)    
Max Wind Speed 10 mph    
Max Gust Speed 16 mph    
Visibility 10 miles    
Events      
Averages and records for this station are not official NWS values.
T = Trace of Precipitation, MM = Missing Value Source: NWS Daily Summary

Daily Weather History Graph

Daily Weather History Graph

Search for Another Location

Airport or City:

Trip Planner

Search our weather history database for the weather conditions in past years. The results will help you decide how hot, cold, wet, or windy it might be!

Date:

Astronomy

Apr. 06, 2013 Rise Set
Actual Time 7:21 AM EDT 8:04 PM EDT
Civil Twilight 6:56 AM EDT 8:29 PM EDT
Nautical Twilight 6:26 AM EDT 8:58 PM EDT
Astronomical Twilight 5:56 AM EDT 9:29 PM EDT
Moon 4:53 AM EDT (4/6) 4:42 PM EDT (4/6)
Length of Visible Light 13h 33m
Length of Day
12h 42m
Waning Crescent, 15% of the Moon is Illuminated
Apr 6
Waning Crescent
Apr 10
New
Apr 18
First Quarter
Apr 25
Full
May 2
Last Quarter

Hourly Weather History & Observations

Time (EDT) Temp. Dew Point Humidity Pressure Visibility Wind Dir Wind Speed Gust Speed Precip Events Conditions
12:15 AM 41.4 °F 38.8 °F 91% 30.08 in 10.0 mi Calm Calm - N/A   Clear
12:35 AM 40.5 °F 38.7 °F 93% 30.09 in 10.0 mi Calm Calm - N/A   Clear
12:55 AM 41.0 °F 38.5 °F 91% 30.09 in 10.0 mi Calm Calm - N/A   Clear
1:15 AM 39.4 °F 37.4 °F 93% 30.10 in 10.0 mi Calm Calm - N/A   Clear
1:35 AM 38.3 °F 37.9 °F 99% 30.10 in 10.0 mi Calm Calm - N/A   Clear
1:55 AM 39.6 °F 39.0 °F 98% 30.10 in 10.0 mi Calm Calm - N/A   Clear
2:15 AM 39.6 °F 37.6 °F 93% 30.10 in 10.0 mi Calm Calm - N/A   Clear
2:35 AM 39.4 °F 37.8 °F 94% 30.10 in 10.0 mi Calm Calm - N/A   Clear
2:55 AM 37.9 °F 36.9 °F 96% 30.10 in 10.0 mi Calm Calm - N/A   Clear
3:15 AM 37.6 °F 36.0 °F 94% 30.09 in 10.0 mi Calm Calm - N/A   Clear
3:35 AM 36.7 °F 35.6 °F 96% 30.09 in 10.0 mi Calm Calm - N/A   Clear
3:55 AM 37.2 °F 36.5 °F 97% 30.09 in 10.0 mi Calm Calm - N/A   Clear
4:15 AM 37.8 °F 36.5 °F 95% 30.09 in 10.0 mi Calm Calm - N/A   Clear
4:35 AM 36.5 °F 35.8 °F 97% 30.09 in 10.0 mi Calm Calm - N/A   Clear
4:55 AM 35.6 °F 35.4 °F 99% 30.09 in 10.0 mi Calm Calm - N/A   Clear
5:15 AM 35.4 °F 34.7 °F 97% 30.09 in 10.0 mi Calm Calm - N/A   Clear
5:35 AM 36.0 °F 35.6 °F 99% 30.10 in 7.0 mi Calm Calm - N/A   Clear
5:55 AM 35.4 °F 35.1 °F 99% 30.11 in 7.0 mi Calm Calm - N/A   Clear
6:15 AM 34.7 °F 33.4 °F 95% 30.12 in 10.0 mi Calm Calm - N/A   Clear
6:35 AM 34.0 °F 32.9 °F 96% 30.12 in 10.0 mi Calm Calm - N/A   Clear
6:55 AM 33.8 °F 32.7 °F 96% 30.12 in 10.0 mi Calm Calm - N/A   Clear
7:15 AM 34.2 °F 32.9 °F 95% 30.14 in 10.0 mi Calm Calm - N/A   Clear
7:35 AM 34.0 °F 33.3 °F 97% 30.14 in 10.0 mi Calm Calm - N/A   Clear
7:55 AM 34.3 °F 34.0 °F 99% 30.15 in 7.0 mi Calm Calm - N/A   Clear
8:15 AM 36.5 °F 35.1 °F 95% 30.17 in 10.0 mi Calm Calm - N/A   Clear
8:35 AM 39.6 °F 37.4 °F 92% 30.17 in 10.0 mi Calm Calm - N/A   Clear
8:55 AM 44.1 °F 40.5 °F 87% 30.17 in 10.0 mi Calm Calm - N/A   Clear
9:15 AM 46.9 °F 42.8 °F 86% 30.17 in 10.0 mi Calm Calm - N/A   Clear
9:35 AM 51.6 °F 43.3 °F 73% 30.17 in 10.0 mi Calm Calm - N/A   Clear
9:55 AM 54.5 °F 41.9 °F 62% 30.17 in 10.0 mi East 3.5 mph - N/A   Clear
10:15 AM 57.0 °F 42.8 °F 59% 30.17 in 10.0 mi Calm Calm - N/A   Clear
10:35 AM 60.1 °F 43.5 °F 54% 30.18 in 10.0 mi Calm Calm - N/A   Clear
10:55 AM 63.5 °F 42.3 °F 46% 30.19 in 10.0 mi SE 6.9 mph - N/A   Clear
11:15 AM 64.8 °F 41.5 °F 43% 30.19 in 10.0 mi ESE 8.1 mph - N/A   Clear
11:35 AM 65.7 °F 40.8 °F 40% 30.19 in 10.0 mi East 8.1 mph - N/A   Clear
11:55 AM 66.6 °F 41.5 °F 40% 30.19 in 10.0 mi SSE 8.1 mph - N/A   Clear
12:15 PM 68.4 °F 39.6 °F 35% 30.19 in 10.0 mi SE 8.1 mph - N/A   Scattered Clouds
12:35 PM 68.4 °F 38.3 °F 33% 30.19 in 10.0 mi SE 9.2 mph - N/A   Clear
12:55 PM 69.1 °F 39.7 °F 34% 30.18 in 10.0 mi SSE 10.4 mph - N/A   Clear
1:15 PM 69.6 °F 38.7 °F 32% 30.17 in 10.0 mi East 8.1 mph - N/A   Clear
1:35 PM 71.1 °F 40.6 °F 33% 30.17 in 10.0 mi SSW 6.9 mph - N/A   Clear
1:55 PM 70.7 °F 39.9 °F 33% 30.16 in 10.0 mi SE 4.6 mph 16.1 mph N/A   Clear
2:15 PM 70.9 °F 40.3 °F 33% 30.15 in 10.0 mi South 3.5 mph - N/A   Clear
2:35 PM 71.6 °F 40.5 °F 32% 30.14 in 10.0 mi ESE 6.9 mph - N/A   Clear
2:55 PM 72.3 °F 42.1 °F 34% 30.13 in 10.0 mi SSE 6.9 mph - N/A   Clear
3:15 PM 72.1 °F 39.7 °F 31% 30.13 in 10.0 mi South 4.6 mph - N/A   Clear
3:35 PM 72.9 °F 41.0 °F 32% 30.12 in 10.0 mi South 4.6 mph - N/A   Clear
3:55 PM 72.9 °F 41.4 °F 32% 30.11 in 10.0 mi ESE 4.6 mph - N/A   Clear
4:15 PM 73.8 °F 41.2 °F 31% 30.11 in 10.0 mi SE 4.6 mph - N/A   Clear
4:35 PM 73.8 °F 42.1 °F 32% 30.10 in 10.0 mi SSE 3.5 mph - N/A   Clear
4:55 PM 73.6 °F 40.6 °F 30% 30.09 in 10.0 mi South 10.4 mph - N/A   Clear
5:15 PM 73.9 °F 41.7 °F 31% 30.09 in 10.0 mi South 8.1 mph - N/A   Clear
5:35 PM 72.9 °F 41.0 °F 32% 30.09 in 10.0 mi South 6.9 mph - N/A   Clear
5:55 PM 73.6 °F 40.3 °F 30% 30.09 in 10.0 mi South 4.6 mph - N/A   Clear
6:15 PM 73.4 °F 41.5 °F 32% 30.09 in 10.0 mi SSE 6.9 mph - N/A   Clear
6:35 PM 72.9 °F 41.0 °F 32% 30.09 in 10.0 mi South 9.2 mph - N/A   Clear
6:55 PM 71.6 °F 41.9 °F 34% 30.10 in 10.0 mi South 4.6 mph - N/A   Clear
7:15 PM 71.4 °F 41.4 °F 34% 30.10 in 10.0 mi South 8.1 mph - N/A   Clear
7:35 PM 70.2 °F 42.1 °F 36% 30.10 in 10.0 mi South 5.8 mph - N/A   Clear
7:55 PM 68.0 °F 41.5 °F 38% 30.10 in 10.0 mi South 4.6 mph - N/A   Clear
8:15 PM 63.7 °F 43.5 °F 48% 30.10 in 10.0 mi SE 3.5 mph - N/A   Clear
8:35 PM 61.0 °F 44.8 °F 55% 30.10 in 10.0 mi Calm Calm - N/A   Clear
8:55 PM 58.8 °F 47.8 °F 67% 30.10 in 10.0 mi Calm Calm - N/A   Clear
9:15 PM 58.6 °F 46.9 °F 65% 30.11 in 10.0 mi Calm Calm - N/A   Clear
9:35 PM 58.1 °F 45.7 °F 63% 30.12 in 10.0 mi Calm Calm - N/A   Clear
9:55 PM 56.7 °F 46.2 °F 68% 30.12 in 10.0 mi SSE 4.6 mph - N/A   Clear
10:15 PM 58.1 °F 43.9 °F 59% 30.12 in 10.0 mi SSE 5.8 mph - N/A   Clear
10:35 PM 57.6 °F 43.7 °F 60% 30.13 in 10.0 mi SE 4.6 mph - N/A   Clear
10:55 PM 57.9 °F 43.2 °F 58% 30.13 in 10.0 mi SSE 3.5 mph - N/A   Clear
11:15 PM 58.1 °F 42.8 °F 57% 30.14 in 10.0 mi Calm Calm - N/A   Clear
11:35 PM 55.8 °F 42.8 °F 62% 30.14 in 10.0 mi Calm Calm - N/A   Clear
11:55 PM 54.3 °F 45.1 °F 71% 30.14 in 10.0 mi Calm Calm - N/A   Clear